sat.trackr.live / text

‹ back to catalog

STARLINK-5394

NORAD 54830 · 2022-177L

PAYLOAD ACTIVE UNKNOWN

§ Identity

Operator
Country
US
Launch date
2022-12-28
Launch site
AFETR
Launch vehicle
Mass (kg)
RCS (m²)

Purposes: comms

External: N2YO · Heavens-Above · Gunter

§ Orbital elements

Epoch: 2026-09-20T21:31:26.620032Z

Period
94.27 min
Inclination
43.0030°
Eccentricity
0.0000927
Mean motion
15.27572812 rev/d
Perigee alt
482.4 km
Apogee alt
483.7 km
Semi-major
6,861.2 km
B*
6.8702e-6
RAAN
113.9841°
Arg perigee
269.4477°
Mean anomaly
90.6268°
Rev number
20,677

§ Raw data

STARLINK-53941 54830U 22177L   26263.89683588 -.00000073  00000+0  68702-5 0  99912 54830  43.0030 113.9841 0000927 269.4477  90.6268 15.27572812206779

JSON: /api/v1/satellites/54830 · /tle

For live sub-satellite position, see the globe view (requires WebGL).

§ Visibility from observer

Set your observer location to see the next 7 days of passes ≥ 10°. The values pass through the URL so the page stays shareable.

No JS? Fill the form by hand. The geolocation button needs JavaScript.